This is the latest recevied weather packets stored in our database for station/object WX7FGZ-6. If no packets are shown the sender has not sent any weather packets the latest 1 day(s).
| Time | Temp. | Humidity | Pressure | Rain* | Wind** | Luminosity | Snow |
|---|---|---|---|---|---|---|---|
| 1777971208 | -4.44° C | 81% | 1012.8 hPa | 0 mm | 6.26 m/s, 179° | - | - |
| 1777971164 | -4.44° C | 78% | 1012.9 hPa | 0 mm | 5.81 m/s, 179° | - | - |
| 1777970907 | -4.44° C | 78% | 1012.9 hPa | 0 mm | 5.81 m/s, 179° | - | - |
| 1777970607 | -4.44° C | 66% | 1012.7 hPa | 0 mm | 5.36 m/s, 168° | - | - |
| 1777970077 | -4.44° C | 53% | 1012.8 hPa | 0 mm | 4.02 m/s, 173° | - | - |
| 1777969777 | -4.44° C | 50% | 1013.5 hPa | 0 mm | 3.58 m/s, 172° | - | - |
| 1777969175 | -4.44° C | 51% | 1013.3 hPa | 0 mm | 4.47 m/s, 177° | - | - |
| 1777968875 | -4.44° C | 55% | 1013.2 hPa | 0 mm | 3.58 m/s, 172° | - | - |
| 1777968810 | -4.44° C | 55% | 1013.1 hPa | 0 mm | 4.92 m/s, 175° | - | - |
| 1777968575 | -4.44° C | 55% | 1013.1 hPa | 0 mm | 4.92 m/s, 175° | - | - |
| 1777968275 | -4.44° C | 59% | 1013.1 hPa | 0 mm | 4.02 m/s, 172° | - | - |
| 1777967975 | -4.44° C | 61% | 1013.1 hPa | 0 mm | 4.02 m/s, 169° | - | - |
| 1777967674 | -4.44° C | 62% | 1013.3 hPa | 0 mm | 4.02 m/s, 174° | - | - |
| 1777967375 | -4.44° C | 63% | 1013.2 hPa | 0 mm | 5.36 m/s, 177° | - | - |
| 1777967075 | -4.44° C | 64% | 1013.1 hPa | 0 mm | 5.36 m/s, 178° | - | - |
| 1777966775 | -4.44° C | 67% | 1012.9 hPa | 0 mm | 5.81 m/s, 181° | - | - |
| 1777966475 | -4.44° C | 68% | 1013.1 hPa | 0 mm | 4.47 m/s, 170° | - | - |
| 1777966175 | -4.44° C | 70% | 1013.3 hPa | 0 mm | 3.13 m/s, 177° | - | - |
| 1777965661 | -4.44° C | 71% | 1013.2 hPa | 0 mm | 3.58 m/s, 173° | - | - |
| 1777965362 | -4.44° C | 70% | 1013.3 hPa | 0 mm | 4.47 m/s, 170° | - | - |
| 1777965062 | -4.44° C | 70% | 1013.3 hPa | 0 mm | 4.47 m/s, 173° | - | - |
* Rain latest hour (hover to see other rain measurements)
** Current wind speed in m/s (hover to see current wind gust speed)